This is the latest recevied weather packets stored in our database for station/object IN3XSV. If no packets are shown the sender has not sent any weather packets the latest 10 day(s).
| Time | Temp. | Humidity | Pressure | Rain* | Wind** | Luminosity | Snow |
|---|---|---|---|---|---|---|---|
| 1778150711 | 18.33° C | 55% | 1005.7 hPa | 0 mm | - | - | - |
| 1778150617 | 18.33° C | 55% | 1005.7 hPa | 0 mm | - | - | - |
| 1778150316 | 17.78° C | 57% | 1005.8 hPa | 0 mm | - | - | - |
| 1778150017 | 17.78° C | 56% | 1006 hPa | 0 mm | - | - | - |
| 1778149716 | 17.78° C | 58% | 1005.9 hPa | 0 mm | - | - | - |
| 1778149417 | 17.78° C | 58% | 1005.8 hPa | 0 mm | - | - | - |
| 1778149116 | 17.78° C | 59% | 1005.9 hPa | 0 mm | - | - | - |
| 1778148817 | 17.78° C | 58% | 1006 hPa | 0 mm | - | - | - |
| 1778148516 | 17.78° C | 59% | 1006.1 hPa | 0 mm | - | - | - |
| 1778148217 | 17.22° C | 60% | 1006.1 hPa | 0 mm | - | - | - |
| 1778147916 | 16.67° C | 63% | 1006.1 hPa | 0 mm | - | - | - |
| 1778147617 | 16.67° C | 62% | 1006.3 hPa | 0 mm | - | - | - |
| 1778147317 | 16.67° C | 61% | 1006.2 hPa | 0 mm | - | - | - |
| 1778147017 | 16.11° C | 61% | 1006.3 hPa | 0 mm | - | - | - |
| 1778146717 | 16.11° C | 60% | 1006.3 hPa | 0 mm | - | - | - |
| 1778146417 | 16.11° C | 61% | 1006.3 hPa | 0 mm | - | - | - |
| 1778146117 | 16.67° C | 64% | 1006.3 hPa | 0 mm | - | - | - |
| 1778145817 | 16.11° C | 67% | 1006.3 hPa | 0 mm | - | - | - |
| 1778145517 | 16.11° C | 70% | 1006.4 hPa | 0 mm | - | - | - |
| 1778145217 | 15.56° C | 69% | 1006.5 hPa | 0 mm | - | - | - |
| 1778144917 | 15.56° C | 70% | 1006.6 hPa | 0 mm | - | - | - |
| 1778144617 | 15.56° C | 71% | 1006.3 hPa | 0 mm | - | - | - |
| 1778144317 | 15.56° C | 71% | 1006.4 hPa | 0 mm | - | - | - |
| 1778144017 | 15° C | 71% | 1006.5 hPa | 0 mm | - | - | - |
| 1778143717 | 15° C | 72% | 1006.7 hPa | 0 mm | - | - | - |
* Rain latest hour (hover to see other rain measurements)
** Current wind speed in m/s (hover to see current wind gust speed)